Elkins, WV

7:11 PM EST on February 19, 2017 (GMT -0500)
Elkins-Randolph County

Weather History for KEKN - November, 2011

Change the Weather History Date:

Thursday, November 17, 2011

  Actual Average Record
Temperature  
Mean Temperature 36 °F 42 °F  
Max Temperature 44 °F 53 °F 75 °F (1958)
Min Temperature 28 °F 30 °F -2 °F (1933)
Degree Days  
Heating Degree Days 29 23  
Month to date heating degree days 327 357  
Since 1 July heating degree days 858 948  
Cooling Degree Days 0 0  
Month to date cooling degree days 0 0  
Year to date cooling degree days 699 475  
Moisture  
Dew Point 27 °F    
Average Humidity 69    
Maximum Humidity 89    
Minimum Humidity 49    
Precipitation  
Precipitation 0.04 in 0.12 in 1.23 in (1980)
Month to date precipitation 0.96 1.87  
Year to date precipitation 45.32 41.16  
Snow  
Snow 0.20 in - - ()
Month to date snowfall 0.2  
Since 1 September snowfall 1.3  
Snow Depth 0.00 in    
Sea Level Pressure  
Sea Level Pressure 30.08 in    
Wind  
Wind Speed 9 mph (NW)    
Max Wind Speed 21 mph    
Max Gust Speed 31 mph    
Visibility 6 miles    
Events Fog , Snow    
T = Trace of Precipitation, MM = Missing Value Source: NWS Daily Summary

Daily Weather History Graph

Daily Weather History Graph

Search for Another Location

Airport or City:

Trip Planner

Search our weather history database for the weather conditions in past years. The results will help you decide how hot, cold, wet, or windy it might be!

Date:

Astronomy

Nov. 17, 2011 Rise Set
Actual Time 7:03 AM EST 5:04 PM EST
Civil Twilight 6:35 AM EST 5:32 PM EST
Nautical Twilight 6:03 AM EST 6:05 PM EST
Astronomical Twilight 5:31 AM EST 6:36 PM EST
Moon 11:21 PM EST (11/17) 12:12 PM EST (11/17)
Length of Visible Light 10h 57m
Length of Day
10h 00m
Waning Gibbous, 60% of the Moon is Illuminated
Nov 17
Waning Gibbous
Nov 18
Last Quarter
Nov 25
New
Dec 2
First Quarter
Dec 10
Full

Hourly Weather History & Observations

Time (EST) Temp. Windchill Dew Point Humidity Pressure Visibility Wind Dir Wind Speed Gust Speed Precip Events Conditions
12:51 AM 42.1 °F 37.7 °F 37.0 °F 82% 29.99 in 9.0 mi NNW 6.9 mph - 0.01 in   Overcast
1:24 AM 42.8 °F 38.6 °F 35.6 °F 76% 29.97 in 10.0 mi North 6.9 mph - N/A   Overcast
1:32 AM 41.0 °F 38.0 °F 35.6 °F 81% 29.97 in 10.0 mi North 4.6 mph - N/A   Overcast
1:51 AM 39.9 °F 34.5 °F 33.1 °F 77% 30.01 in 10.0 mi NW 8.1 mph - N/A   Overcast
2:05 AM 39.2 °F 34.2 °F 33.8 °F 81% 29.99 in 10.0 mi NW 6.9 mph - N/A   Overcast
2:34 AM 39.2 °F 37.0 °F 32.0 °F 75% 29.98 in 10.0 mi NNW 3.5 mph - N/A   Overcast
2:41 AM 39.2 °F 37.0 °F 33.8 °F 81% 29.96 in 10.0 mi North 3.5 mph - N/A   Mostly Cloudy
2:51 AM 39.0 °F 33.4 °F 30.0 °F 70% 30.00 in 10.0 mi North 8.1 mph - N/A   Overcast
3:51 AM 37.9 °F 35.5 °F 30.9 °F 76% 30.00 in 10.0 mi NNW 3.5 mph - N/A   Overcast
4:51 AM 37.9 °F 34.4 °F 30.0 °F 73% 30.01 in 10.0 mi NW 4.6 mph - N/A   Overcast
5:37 AM 37.4 °F 32.1 °F 30.2 °F 75% 29.98 in 10.0 mi North 6.9 mph - N/A   Overcast
5:51 AM 37.0 °F 33.3 °F 30.0 °F 76% 30.03 in 10.0 mi NNW 4.6 mph - N/A   Overcast
6:51 AM 36.0 °F 30.3 °F 30.0 °F 79% 30.03 in 10.0 mi NNW 6.9 mph - 0.00 in   Overcast
7:51 AM 35.1 °F 27.9 °F 30.0 °F 82% 30.06 in 10.0 mi NW 9.2 mph - N/A   Overcast
8:51 AM 35.1 °F 29.3 °F 28.9 °F 78% 30.09 in 10.0 mi NW 6.9 mph - N/A   Overcast
9:17 AM 33.8 °F 27.7 °F 28.4 °F 81% 30.04 in 3.0 mi NNW 6.9 mph - 0.00 in Snow Light Snow
9:21 AM 33.8 °F 27.7 °F 28.4 °F 81% 30.04 in 1.8 mi NW 6.9 mph - 0.00 in Snow Light Snow
9:33 AM 33.8 °F 29.6 °F 30.2 °F 87% 30.04 in 1.8 mi NNW 4.6 mph - N/A Snow Light Snow
9:40 AM 33.8 °F 28.6 °F 30.2 °F 87% 30.04 in 0.8 mi NNW 5.8 mph - 0.00 in Snow Light Snow
9:51 AM 33.8 °F 29.6 °F 30.2 °F 87% 30.05 in 0.8 mi NW 4.6 mph - N/A Snow Light Snow
9:59 AM 33.8 °F 28.6 °F 30.2 °F 87% 30.04 in 1.0 mi WNW 5.8 mph - 0.01 in Snow Light Snow
10:09 AM 33.8 °F 27.7 °F 30.2 °F 87% 30.05 in 3.0 mi NW 6.9 mph - 0.01 in Snow Light Snow
10:17 AM 33.8 °F 27.7 °F 30.2 °F 87% 30.05 in 7.0 mi NW 6.9 mph - 0.01 in   Overcast
10:24 AM 33.8 °F 26.4 °F 28.4 °F 81% 30.05 in 2.5 mi NW 9.2 mph - 0.01 in Snow Light Snow
10:33 AM 33.8 °F 25.8 °F 30.2 °F 87% 30.05 in 0.8 mi NW 10.4 mph - 0.01 in Snow Light Snow
10:51 AM 33.1 °F 24.9 °F 30.0 °F 89% 30.11 in 1.0 mi NW 10.4 mph - 0.01 in Snow Light Snow
11:00 AM 33.8 °F 27.7 °F 28.4 °F 81% 30.05 in 3.0 mi NW 6.9 mph - 0.00 in Snow Light Snow
11:10 AM 33.8 °F 27.7 °F 28.4 °F 81% 30.05 in 9.0 mi NW 6.9 mph - 0.00 in   Mostly Cloudy
11:18 AM 33.8 °F 26.4 °F 28.4 °F 81% 30.04 in 10.0 mi NNW 9.2 mph - 0.00 in   Overcast
11:51 AM 34.0 °F 27.2 °F 28.0 °F 79% 30.10 in 10.0 mi NW 8.1 mph - 0.00 in   Overcast
11:58 AM 33.8 °F 26.4 °F 28.4 °F 81% 30.04 in 10.0 mi NNW 9.2 mph - N/A   Overcast
12:15 PM 33.8 °F 26.4 °F 26.6 °F 75% 30.05 in 4.0 mi WNW 9.2 mph - 0.00 in Snow Light Snow
12:19 PM 33.8 °F 27.7 °F 28.4 °F 81% 30.04 in 2.5 mi Variable 6.9 mph 17.3 mph 0.00 in Snow Light Snow
12:27 PM 33.8 °F 25.8 °F 26.6 °F 75% 30.04 in 4.0 mi NW 10.4 mph - 0.01 in Snow Light Snow
12:37 PM 33.8 °F 27.0 °F 26.6 °F 75% 30.04 in 9.0 mi NW 8.1 mph - 0.01 in   Overcast
12:51 PM 34.0 °F 25.0 °F 25.0 °F 70% 30.10 in 10.0 mi WNW 12.7 mph - 0.01 in   Mostly Cloudy
1:51 PM 36.0 °F 27.1 °F 21.9 °F 57% 30.09 in 10.0 mi WNW 13.8 mph 20.7 mph N/A   Overcast
2:33 PM 33.8 °F 24.8 °F 24.8 °F 70% 30.04 in 2.5 mi WNW 12.7 mph 21.9 mph 0.00 in Snow Light Snow
2:40 PM 33.8 °F 24.3 °F 24.8 °F 70% 30.04 in 9.0 mi WNW 13.8 mph 19.6 mph 0.00 in   Overcast
2:51 PM 34.0 °F 25.0 °F 24.1 °F 67% 30.10 in 10.0 mi NW 12.7 mph - 0.00 in   Overcast
3:05 PM 32.0 °F 23.0 °F 26.6 °F 80% 30.05 in 0.8 mi WNW 11.5 mph 20.7 mph 0.00 in Snow Light Snow
3:13 PM 32.0 °F 23.6 °F 26.6 °F 80% 30.05 in 1.2 mi West 10.4 mph 17.3 mph 0.00 in Snow Light Snow
3:16 PM 33.8 °F 24.3 °F 24.8 °F 70% 30.05 in 4.0 mi West 13.8 mph 18.4 mph 0.00 in Snow Light Snow
3:34 PM 33.8 °F 25.8 °F 24.8 °F 70% 30.06 in 2.5 mi West 10.4 mph - 0.00 in Snow Light Snow
3:42 PM 32.0 °F 24.8 °F 24.8 °F 75% 30.06 in 1.8 mi West 8.1 mph 16.1 mph 0.00 in Snow Light Snow
3:45 PM 32.0 °F 26.4 °F 24.8 °F 75% 30.06 in 3.0 mi WNW 5.8 mph - 0.00 in Snow Light Snow
3:51 PM 33.1 °F 26.1 °F 25.0 °F 72% 30.13 in 9.0 mi WNW 8.1 mph - 0.00 in Snow Light Snow
4:51 PM 33.1 °F 26.1 °F 21.9 °F 64% 30.14 in 10.0 mi West 8.1 mph - N/A   Scattered Clouds
5:11 PM 32.0 °F 19.8 °F 23.0 °F 69% 30.10 in 2.5 mi WNW 20.7 mph 31.1 mph 0.00 in Snow Light Snow
5:18 PM 30.2 °F 20.2 °F 24.8 °F 80% 30.12 in 1.0 mi WNW 12.7 mph 31.1 mph 0.00 in Snow Light Snow
5:25 PM 30.2 °F 22.6 °F 26.6 °F 86% 30.11 in 1.0 mi WNW 8.1 mph - N/A Snow Light Snow
5:31 PM 30.2 °F 23.4 °F 24.8 °F 80% 30.11 in 3.0 mi West 6.9 mph - 0.00 in Snow Light Snow
5:42 PM 30.2 °F 21.9 °F 24.8 °F 80% 30.12 in 9.0 mi West 9.2 mph - 0.00 in   Mostly Cloudy
5:51 PM 30.9 °F 23.5 °F 23.0 °F 72% 30.19 in 10.0 mi WNW 8.1 mph - 0.00 in   Mostly Cloudy
6:10 PM 30.2 °F 21.9 °F 24.8 °F 80% 30.14 in 2.5 mi West 9.2 mph - 0.00 in Snow Light Snow
6:20 PM 30.2 °F 21.3 °F 24.8 °F 80% 30.14 in 4.0 mi West 10.4 mph - 0.00 in Snow Light Snow
6:30 PM 30.2 °F 18.5 °F 24.8 °F 80% 30.15 in 1.8 mi NW 17.3 mph 31.1 mph 0.00 in Snow Light Snow
6:39 PM 28.4 °F 20.4 °F 24.8 °F 86% 30.15 in 0.5 mi West 8.1 mph 31.1 mph 0.01 in Fog , Snow Light Snow
6:44 PM 30.2 °F 22.6 °F 23.0 °F 75% 30.15 in 2.0 mi West 8.1 mph - 0.01 in Snow Light Snow
6:46 PM 28.4 °F 22.2 °F 23.0 °F 80% 30.15 in 5.0 mi WNW 5.8 mph - 0.01 in Snow Light Snow
6:51 PM 28.9 °F 25.2 °F 23.0 °F 78% 30.22 in 9.0 mi West 3.5 mph - 0.01 in   Scattered Clouds
7:51 PM 32.0 °F 23.0 °F 19.4 °F 60% 30.16 in 10.0 mi West 11.5 mph 23.0 mph N/A   Scattered Clouds
8:51 PM 30.9 °F 21.7 °F 19.0 °F 61% 30.27 in 10.0 mi WNW 11.5 mph 21.9 mph N/A   Partly Cloudy
9:51 PM 30.0 °F 19.1 °F 14.0 °F 51% 30.30 in 10.0 mi WNW 15.0 mph 26.5 mph N/A   Clear
10:51 PM 28.0 °F 17.0 °F 12.9 °F 53% 30.33 in 10.0 mi WNW 13.8 mph 21.9 mph N/A   Clear
11:51 PM 28.0 °F 17.5 °F 12.0 °F 51% 30.35 in 10.0 mi WNW 12.7 mph 19.6 mph N/A   Clear